Location: Asheville, NC
(35.6000°N, 82.5500°W)
Time: 20:12:31
(UTC-04:00)

UWE-3 - Pass Details

Date: 04 January 2018
Orbit: 586 x 684 km, 97.6° (Epoch: 24 April)

Event Time Altitude Azimuth Distance (km) Brightness Sun altitude
Rises 07:07:32 0° 31° (NNE) 3,014 ? -6.8°
Reaches altitude 10° 07:10:26 10° 51° (NE) 2,109 ? -6.3°
Maximum altitude 07:13:34 18° 94° (E) 1,652 ? -5.7°
Drops below altitude 10° 07:16:41 10° 136° (SE) 2,117 ? -5.1°
Sets 07:19:35 0° 155° (SSE) 3,030 ? -4.6°
